,,,PA_Meas_PMT16A,,PR_Meas_QMR101_102,,RH_Meas_QMH101,,SR_Meas_QMS101,,TA_Meas_QMH101,,GenWind,,GenWind,
date,time,status,PA,status,PR,status,RH,status,SR,status,TA,status,DirAvg,status,SpdAvg,
2008-05-09, 00:00:04,VALID,1002.34,VALID,0,VALID,93.4767,VALID,0,VALID,24.6009,VALID,25,VALID,0.503516,
2008-05-09, 00:01:04,VALID,1002.33,VALID,0,VALID,93.5148,VALID,0,VALID,24.6009,VALID,26,VALID,0.257031,
2008-05-09, 00:02:04,VALID,1002.31,VALID,0,VALID,93.5301,VALID,0,VALID,24.6009,VALID,32,VALID,0,
2008-05-09, 00:03:04,VALID,1002.3,VALID,0,VALID,93.4614,VALID,0,VALID,24.5814,VALID,56,VALID,0.298438,
2008-05-09, 00:04:04,VALID,1002.32,VALID,0,VALID,93.4462,VALID,0,VALID,24.562,VALID,56,VALID,0,
2008-05-09, 00:05:04,VALID,1002.37,VALID,0,VALID,93.4233,VALID,0,VALID,24.562,VALID,56,VALID,0.341016,
2008-05-09, 00:06:04,VALID,1002.38,VALID,0,VALID,93.5835,VALID,0,VALID,24.5601,VALID,56,VALID,0,
2008-05-09, 00:07:04,VALID,1002.37,VALID,0,VALID,93.614,VALID,0,VALID,24.562,VALID,56,VALID,0,
2008-05-09, 00:08:04,VALID,1002.4,VALID,0,VALID,93.6216,VALID,0,VALID,24.562,VALID,56,VALID,0.0253906,
2008-05-09, 00:09:04,VALID,1002.39,VALID,0,VALID,93.5758,VALID,0,VALID,24.5212,VALID,56,VALID,0.0195313,
2008-05-09, 00:10:04,VALID,1002.36,VALID,0,VALID,93.5835,VALID,0,VALID,24.5425,VALID,56,VALID,0.0617188,
2008-05-09, 00:11:04,VALID,1002.33,VALID,0,VALID,93.6979,VALID,0,VALID,24.523,VALID,56,VALID,0.341406,
2008-05-09, 00:12:04,VALID,1002.33,VALID,0,VALID,93.6826,VALID,0,VALID,24.523,VALID,43,VALID,0.588672,
2008-05-09, 00:13:04,VALID,1002.3,VALID,0,VALID,93.7895,VALID,0,VALID,24.5212,VALID,29,VALID,0.464844,
2008-05-09, 00:14:04,VALID,1002.25,VALID,0,VALID,93.675,VALID,0,VALID,24.523,VALID,34,VALID,0.257422,
2008-05-09, 00:15:04,VALID,1002.23,VALID,0,VALID,93.6292,VALID,0,VALID,24.523,VALID,66,VALID,0.621094,
2008-05-09, 00:16:04,VALID,1002.22,VALID,0,VALID,93.6903,VALID,0,VALID,24.5017,VALID,86,VALID,0.528906,
2008-05-09, 00:17:04,VALID,1002.21,VALID,0,VALID,93.6369,VALID,0,VALID,24.5035,VALID,66,VALID,1.10703,
2008-05-09, 00:18:04,VALID,1002.17,VALID,0,VALID,93.7132,VALID,0,VALID,24.5425,VALID,58,VALID,0.404687,
2008-05-09, 00:19:04,VALID,1002.21,VALID,0,VALID,93.7361,VALID,0,VALID,24.523,VALID,92,VALID,0.485156,
2008-05-09, 00:20:04,VALID,1002.15,VALID,0,VALID,93.7818,VALID,0,VALID,24.5425,VALID,92,VALID,0.452734,
2008-05-09, 00:21:04,VALID,1002.14,VALID,0,VALID,93.7666,VALID,0,VALID,24.5212,VALID,72,VALID,0.597266,
2008-05-09, 00:22:04,VALID,1002.13,VALID,0,VALID,93.8047,VALID,0,VALID,24.5212,VALID,67,VALID,0.602734,
2008-05-09, 00:23:04,VALID,1002.14,VALID,0,VALID,93.8505,VALID,0,VALID,24.5425,VALID,106,VALID,0.692969,
2008-05-09, 00:24:04,VALID,1002.13,VALID,0,VALID,93.8429,VALID,0,VALID,24.562,VALID,108,VALID,0.932422,
2008-05-09, 00:25:04,VALID,1002.14,VALID,0,VALID,93.7818,VALID,0,VALID,24.5814,VALID,96,VALID,0.94375,
2008-05-09, 00:26:04,VALID,1002.14,VALID,0,VALID,93.7361,VALID,0.100563,VALID,24.5814,VALID,99,VALID,0.732031,
2008-05-09, 00:27:04,VALID,1002.12,VALID,0,VALID,93.7361,VALID,0,VALID,24.6009,VALID,98,VALID,0.532422,
2008-05-09, 00:28:04,VALID,1002.13,VALID,0,VALID,93.7284,VALID,0,VALID,24.6009,VALID,62,VALID,0.415625,
2008-05-09, 00:29:04,VALID,1002.14,VALID,0,VALID,93.6598,VALID,0,VALID,24.599,VALID,82,VALID,0.91875,
2008-05-09, 00:30:04,VALID,1002.13,VALID,0,VALID,93.5987,VALID,0,VALID,24.6593,VALID,65,VALID,0.628125,
2008-05-09, 00:31:04,VALID,1002.13,VALID,0,VALID,93.5301,VALID,0,VALID,24.6574,VALID,72,VALID,0.551953,
2008-05-09, 00:32:04,VALID,1002.15,VALID,0,VALID,93.4004,VALID,0,VALID,24.6983,VALID,70,VALID,0.507813,
2008-05-09, 00:33:04,VALID,1002.14,VALID,0,VALID,93.3088,VALID,0,VALID,24.7177,VALID,79,VALID,0.573047,
2008-05-09, 00:34:04,VALID,1002.15,VALID,0,VALID,93.3012,VALID,0,VALID,24.6983,VALID,81,VALID,0.538672,
2008-05-09, 00:35:04,VALID,1002.15,VALID,0,VALID,93.3241,VALID,0,VALID,24.6788,VALID,79,VALID,0.290625,
2008-05-09, 00:36:04,VALID,1002.15,VALID,0,VALID,93.3317,VALID,0,VALID,24.6788,VALID,80,VALID,0.592578,
2008-05-09, 00:37:04,VALID,1002.14,VALID,0,VALID,93.408,VALID,0,VALID,24.6788,VALID,105,VALID,0.214844,
2008-05-09, 00:38:04,VALID,1002.14,VALID,0,VALID,93.408,VALID,0,VALID,24.7001,VALID,104,VALID,0.454297,
2008-05-09, 00:39:04,VALID,1002.12,VALID,0,VALID,93.408,VALID,0,VALID,24.6983,VALID,104,VALID,0.505469,
2008-05-09, 00:40:04,VALID,1002.09,VALID,0,VALID,93.4309,VALID,0,VALID,24.6788,VALID,105,VALID,0.413281,
2008-05-09, 00:41:04,VALID,1002.08,VALID,0,VALID,93.408,VALID,0,VALID,24.6983,VALID,84,VALID,0.508594,
2008-05-09, 00:42:04,VALID,1002.04,VALID,0,VALID,93.4462,VALID,0,VALID,24.6788,VALID,98,VALID,0.544531,
2008-05-09, 00:43:04,VALID,1002.06,VALID,0,VALID,93.469,VALID,0,VALID,24.7001,VALID,95,VALID,0.201953,
2008-05-09, 00:44:04,VALID,1002.04,VALID,0,VALID,93.469,VALID,0,VALID,24.6788,VALID,95,VALID,0.384766,
2008-05-09, 00:45:04,VALID,1001.99,VALID,0,VALID,93.553,VALID,0,VALID,24.6983,VALID,95,VALID,0.198047,
2008-05-09, 00:46:04,VALID,1002.02,VALID,0,VALID,93.5453,VALID,0,VALID,24.6788,VALID,95,VALID,0.253516,
2008-05-09, 00:47:04,VALID,1002,VALID,0,VALID,93.5682,VALID,0,VALID,24.6593,VALID,95,VALID,0.194531,
2008-05-09, 00:48:04,VALID,1002,VALID,0,VALID,93.6445,VALID,0,VALID,24.6593,VALID,95,VALID,0.369922,
2008-05-09, 00:49:04,VALID,1002,VALID,0,VALID,93.6903,VALID,0,VALID,24.6398,VALID,70,VALID,0.432031,
2008-05-09, 00:50:04,VALID,1001.96,VALID,0,VALID,93.675,VALID,0,VALID,24.6204,VALID,64,VALID,0.467578,
2008-05-09, 00:51:04,VALID,1001.94,VALID,0,VALID,93.7361,VALID,0.100563,VALID,24.6009,VALID,68,VALID,0.284375,
2008-05-09, 00:52:04,VALID,1001.94,VALID,0,VALID,93.8123,VALID,0,VALID,24.6222,VALID,67,VALID,0.182422,
2008-05-09, 00:53:04,VALID,1001.91,VALID,0,VALID,93.9725,VALID,0,VALID,24.6009,VALID,46,VALID,0.247656,
2008-05-09, 00:54:04,VALID,1001.92,VALID,0,VALID,94.0641,VALID,0,VALID,24.5814,VALID,46,VALID,0.25,
2008-05-09, 00:55:04,VALID,1001.91,VALID,0,VALID,94.1785,VALID,0,VALID,24.6009,VALID,42,VALID,0.467578,
2008-05-09, 00:56:04,VALID,1001.89,VALID,0,VALID,94.3006,VALID,0,VALID,24.6009,VALID,42,VALID,0.281641,
2008-05-09, 00:57:04,VALID,1001.89,VALID,0,VALID,94.354,VALID,0,VALID,24.6204,VALID,42,VALID,0.0304688,
2008-05-09, 00:58:04,VALID,1001.87,VALID,0,VALID,94.3845,VALID,0,VALID,24.6204,VALID,42,VALID,0.003125,
2008-05-09, 00:59:04,VALID,1001.86,VALID,0,VALID,94.4074,VALID,0,VALID,24.6204,VALID,43,VALID,0.387891,
2008-05-09, 01:00:04,VALID,1001.81,VALID,0,VALID,94.3845,VALID,0,VALID,24.6185,VALID,45,VALID,0,
2008-05-09, 01:01:04,VALID,1001.8,VALID,0,VALID,94.3692,VALID,0,VALID,24.6398,VALID,45,VALID,0.131641,
2008-05-09, 01:02:04,VALID,1001.8,VALID,0,VALID,94.3616,VALID,0,VALID,24.6398,VALID,51,VALID,0.392969,
2008-05-09, 01:03:04,VALID,1001.75,VALID,0,VALID,94.3921,VALID,0,VALID,24.6593,VALID,69,VALID,0.514063,
2008-05-09, 01:04:04,VALID,1001.73,VALID,0,VALID,94.3769,VALID,0,VALID,24.6574,VALID,69,VALID,0.430078,
2008-05-09, 01:05:04,VALID,1001.73,VALID,0,VALID,94.3235,VALID,0,VALID,24.6788,VALID,74,VALID,0.557031,
2008-05-09, 01:06:04,VALID,1001.73,VALID,0,VALID,94.3998,VALID,0,VALID,24.6983,VALID,54,VALID,0.455078,
2008-05-09, 01:07:04,VALID,1001.74,VALID,0,VALID,94.3845,VALID,0,VALID,24.6983,VALID,67,VALID,0.557422,
2008-05-09, 01:08:04,VALID,1001.72,VALID,0,VALID,94.3464,VALID,0,VALID,24.7177,VALID,65,VALID,0.363281,
2008-05-09, 01:09:04,VALID,1001.7,VALID,0,VALID,94.3311,VALID,0,VALID,24.7372,VALID,70,VALID,0.217187,
2008-05-09, 01:10:04,VALID,1001.68,VALID,0,VALID,94.3006,VALID,0,VALID,24.7567,VALID,70,VALID,0,
2008-05-09, 01:11:04,VALID,1001.7,VALID,0,VALID,94.2853,VALID,0,VALID,24.7586,VALID,21,VALID,0.611719,
2008-05-09, 01:12:04,VALID,1001.65,VALID,0,VALID,94.3311,VALID,0,VALID,24.7994,VALID,14,VALID,0.593359,
2008-05-09, 01:13:04,VALID,1001.68,VALID,0,VALID,94.354,VALID,0,VALID,24.7761,VALID,13,VALID,0.104297,
2008-05-09, 01:14:04,VALID,1001.63,VALID,0,VALID,94.3082,VALID,0,VALID,24.7956,VALID,13,VALID,0,
2008-05-09, 01:15:04,VALID,1001.64,VALID,0,VALID,94.354,VALID,0,VALID,24.7761,VALID,13,VALID,0,
2008-05-09, 01:16:04,VALID,1001.65,VALID,0,VALID,94.3845,VALID,0,VALID,24.7956,VALID,13,VALID,0.273047,
2008-05-09, 01:17:04,VALID,1001.61,VALID,0,VALID,94.3769,VALID,0,VALID,24.778,VALID,13,VALID,0.2625,
2008-05-09, 01:18:04,VALID,1001.57,VALID,0,VALID,94.3845,VALID,0,VALID,24.7956,VALID,13,VALID,0.332422,
2008-05-09, 01:19:04,VALID,1001.53,VALID,0,VALID,94.3387,VALID,0,VALID,24.7956,VALID,12,VALID,0.46875,
2008-05-09, 01:20:04,VALID,1001.54,VALID,0,VALID,94.3921,VALID,0,VALID,24.8364,VALID,11,VALID,0.241406,
2008-05-09, 01:21:04,VALID,1001.51,VALID,0,VALID,94.4303,VALID,0,VALID,24.8151,VALID,11,VALID,0.358984,
2008-05-09, 01:22:04,VALID,1001.49,VALID,0,VALID,94.4532,VALID,0,VALID,24.8364,VALID,11,VALID,0.122266,
2008-05-09, 01:23:04,VALID,1001.44,VALID,0,VALID,94.4379,VALID,0,VALID,24.8151,VALID,11,VALID,0.220313,
2008-05-09, 01:24:04,VALID,1001.46,VALID,0,VALID,94.4837,VALID,0,VALID,24.8364,VALID,16,VALID,0.224609,
2008-05-09, 01:25:04,VALID,1001.42,VALID,0,VALID,94.4532,VALID,0,VALID,24.7743,VALID,16,VALID,0.249609,
2008-05-09, 01:26:04,VALID,1001.42,VALID,0,VALID,94.4379,VALID,0,VALID,24.7956,VALID,16,VALID,0,
2008-05-09, 01:27:04,VALID,1001.4,VALID,0,VALID,94.4455,VALID,0,VALID,24.7956,VALID,16,VALID,0,
2008-05-09, 01:28:04,VALID,1001.38,VALID,0,VALID,94.5218,VALID,0,VALID,24.7956,VALID,16,VALID,0.139844,
2008-05-09, 01:29:04,VALID,1001.37,VALID,0,VALID,94.5142,VALID,0,VALID,24.7956,VALID,16,VALID,0,
2008-05-09, 01:30:04,VALID,1001.39,VALID,0,VALID,94.5447,VALID,0,VALID,24.817,VALID,16,VALID,0,
2008-05-09, 01:31:04,VALID,1001.39,VALID,0,VALID,94.5829,VALID,0,VALID,24.7956,VALID,16,VALID,0,
2008-05-09, 01:32:04,VALID,1001.38,VALID,0,VALID,94.5676,VALID,0,VALID,24.817,VALID,16,VALID,0,
2008-05-09, 01:33:04,VALID,1001.37,VALID,0,VALID,94.6439,VALID,0,VALID,24.7956,VALID,16,VALID,0,
2008-05-09, 01:34:04,VALID,1001.38,VALID,0,VALID,94.6057,VALID,0,VALID,24.7956,VALID,16,VALID,0,
2008-05-09, 01:35:04,VALID,1001.4,VALID,0,VALID,94.6057,VALID,0,VALID,24.7975,VALID,16,VALID,0,
2008-05-09, 01:36:04,VALID,1001.38,VALID,0,VALID,94.6286,VALID,0,VALID,24.817,VALID,124,VALID,0.520312,
2008-05-09, 01:37:04,VALID,1001.37,VALID,0,VALID,94.6286,VALID,0,VALID,24.8364,VALID,116,VALID,0.0121094,
2008-05-09, 01:38:04,VALID,1001.39,VALID,0,VALID,94.5676,VALID,0,VALID,24.8364,VALID,116,VALID,0.298047,
2008-05-09, 01:39:04,VALID,1001.36,VALID,0,VALID,94.5142,VALID,0,VALID,24.8559,VALID,115,VALID,0.64375,
2008-05-09, 01:40:04,VALID,1001.38,VALID,0,VALID,94.4684,VALID,0,VALID,24.8949,VALID,99,VALID,0.790234,
2008-05-09, 01:41:04,VALID,1001.37,VALID,0,VALID,94.3845,VALID,0,VALID,24.9319,VALID,106,VALID,0.811719,
2008-05-09, 01:42:04,VALID,1001.4,VALID,0,VALID,94.2319,VALID,0,VALID,24.9514,VALID,106,VALID,0.458984,
2008-05-09, 01:43:04,VALID,1001.4,VALID,0,VALID,94.0565,VALID,0,VALID,24.9319,VALID,106,VALID,0.358984,
2008-05-09, 01:44:04,VALID,1001.4,VALID,0,VALID,94.0717,VALID,0,VALID,24.9319,VALID,111,VALID,0.669531,
2008-05-09, 01:45:04,VALID,1001.43,VALID,0,VALID,94.0031,VALID,0,VALID,24.9904,VALID,113,VALID,0.836328,
2008-05-09, 01:46:04,VALID,1001.42,VALID,0,VALID,93.8657,VALID,0,VALID,25.0117,VALID,98,VALID,0.644141,
2008-05-09, 01:47:04,VALID,1001.41,VALID,0,VALID,93.7742,VALID,0,VALID,25.0117,VALID,98,VALID,0.595703,
2008-05-09, 01:48:04,VALID,1001.42,VALID,0,VALID,93.7742,VALID,0,VALID,24.9904,VALID,92,VALID,0.736328,
2008-05-09, 01:49:04,VALID,1001.45,VALID,0,VALID,93.6903,VALID,0,VALID,25.0507,VALID,88,VALID,0.734375,
2008-05-09, 01:50:04,VALID,1001.46,VALID,0,VALID,93.5987,VALID,0,VALID,25.0488,VALID,105,VALID,1.01367,
2008-05-09, 01:51:04,VALID,1001.46,VALID,0,VALID,93.4538,VALID,0,VALID,25.0877,VALID,96,VALID,0.504297,
2008-05-09, 01:52:04,VALID,1001.44,VALID,0,VALID,93.3088,VALID,0,VALID,25.1286,VALID,95,VALID,0.475781,
2008-05-09, 01:53:04,VALID,1001.43,VALID,0,VALID,93.2554,VALID,0,VALID,25.1267,VALID,96,VALID,0.167578,
2008-05-09, 01:54:04,VALID,1001.42,VALID,0,VALID,93.2325,VALID,0,VALID,25.1072,VALID,96,VALID,0.354297,
2008-05-09, 01:55:04,VALID,1001.44,VALID,0,VALID,93.2173,VALID,0,VALID,25.1286,VALID,96,VALID,0.439063,
2008-05-09, 01:56:04,VALID,1001.4,VALID,0,VALID,93.2249,VALID,0,VALID,25.0877,VALID,96,VALID,0.408594,
2008-05-09, 01:57:04,VALID,1001.41,VALID,0,VALID,93.1563,VALID,0,VALID,25.0877,VALID,96,VALID,0.501562,
2008-05-09, 01:58:04,VALID,1001.39,VALID,0,VALID,93.202,VALID,0,VALID,25.0877,VALID,96,VALID,0.105469,
2008-05-09, 01:59:04,VALID,1001.4,VALID,0,VALID,93.2859,VALID,0,VALID,25.0877,VALID,98,VALID,0.399609,
2008-05-09, 02:00:04,VALID,1001.41,VALID,0,VALID,93.2707,VALID,0,VALID,25.0877,VALID,102,VALID,0.529688,
2008-05-09, 02:01:04,VALID,1001.4,VALID,0,VALID,93.2936,VALID,0,VALID,25.1072,VALID,100,VALID,0.567578,
2008-05-09, 02:02:04,VALID,1001.4,VALID,0,VALID,93.2097,VALID,0,VALID,25.148,VALID,102,VALID,0.233203,
2008-05-09, 02:03:04,VALID,1001.4,VALID,0,VALID,93.1105,VALID,0,VALID,25.1286,VALID,87,VALID,0.311328,
2008-05-09, 02:04:04,VALID,1001.4,VALID,0,VALID,93.1563,VALID,0,VALID,25.1091,VALID,87,VALID,0.334766,
2008-05-09, 02:05:04,VALID,1001.4,VALID,0,VALID,93.2249,VALID,0,VALID,25.0682,VALID,87,VALID,0.38125,
2008-05-09, 02:06:04,VALID,1001.38,VALID,0,VALID,93.3394,VALID,0,VALID,25.0488,VALID,79,VALID,0.203516,
2008-05-09, 02:07:04,VALID,1001.36,VALID,0,VALID,93.4462,VALID,0,VALID,25.0293,VALID,79,VALID,0.143359,
2008-05-09, 02:08:04,VALID,1001.37,VALID,0,VALID,93.5606,VALID,0,VALID,25.0098,VALID,79,VALID,0.221094,
2008-05-09, 02:09:04,VALID,1001.38,VALID,0,VALID,93.6521,VALID,0,VALID,24.9904,VALID,79,VALID,0.131641,
2008-05-09, 02:10:04,VALID,1001.38,VALID,0,VALID,93.7818,VALID,0,VALID,24.9904,VALID,79,VALID,0.33125,
2008-05-09, 02:11:04,VALID,1001.33,VALID,0,VALID,93.8352,VALID,0,VALID,24.9709,VALID,77,VALID,0.175781,
2008-05-09, 02:12:04,VALID,1001.33,VALID,0,VALID,93.8886,VALID,0,VALID,24.9709,VALID,77,VALID,0.0609375,
2008-05-09, 02:13:04,VALID,1001.32,VALID,0,VALID,93.9344,VALID,0,VALID,24.9709,VALID,77,VALID,0.0851562,
2008-05-09, 02:14:04,VALID,1001.32,VALID,0,VALID,93.9725,VALID,0,VALID,24.9514,VALID,76,VALID,0.188281,
2008-05-09, 02:15:04,VALID,1001.28,VALID,0,VALID,94.0565,VALID,0,VALID,24.9514,VALID,70,VALID,0.257422,
2008-05-09, 02:16:04,VALID,1001.27,VALID,0,VALID,94.087,VALID,0,VALID,24.9514,VALID,58,VALID,0.272656,
2008-05-09, 02:17:04,VALID,1001.24,VALID,0,VALID,94.1099,VALID,0,VALID,24.9709,VALID,58,VALID,0.160156,
2008-05-09, 02:18:04,VALID,1001.26,VALID,0,VALID,94.1328,VALID,0,VALID,24.9514,VALID,58,VALID,0.313672,
2008-05-09, 02:19:04,VALID,1001.26,VALID,0,VALID,94.148,VALID,0,VALID,24.9514,VALID,58,VALID,0.146875,
2008-05-09, 02:20:04,VALID,1001.25,VALID,0,VALID,94.1556,VALID,0,VALID,24.9514,VALID,58,VALID,0.117188,
2008-05-09, 02:21:04,VALID,1001.23,VALID,0,VALID,94.1633,VALID,0,VALID,24.9319,VALID,58,VALID,0.382031,
2008-05-09, 02:22:04,VALID,1001.21,VALID,0,VALID,94.2167,VALID,0,VALID,24.9338,VALID,58,VALID,0.347266,
2008-05-09, 02:23:04,VALID,1001.21,VALID,0,VALID,94.2396,VALID,0,VALID,24.9338,VALID,65,VALID,0.517969,
2008-05-09, 02:24:04,VALID,1001.18,VALID,0,VALID,94.293,VALID,0,VALID,24.9338,VALID,92,VALID,0.702344,
2008-05-09, 02:25:04,VALID,1001.17,VALID,0,VALID,94.3082,VALID,0,VALID,24.9533,VALID,108,VALID,0.441797,
2008-05-09, 02:26:04,VALID,1001.16,VALID,0,VALID,94.2548,VALID,0,VALID,24.9514,VALID,87,VALID,0.712109,
2008-05-09, 02:27:04,VALID,1001.16,VALID,0,VALID,94.2396,VALID,0,VALID,24.9709,VALID,83,VALID,0.663672,
2008-05-09, 02:28:04,VALID,1001.15,VALID,0,VALID,94.2014,VALID,0,VALID,25.0098,VALID,87,VALID,0.940625,
2008-05-09, 02:29:04,VALID,1001.15,VALID,0,VALID,94.148,VALID,0,VALID,25.0488,VALID,117,VALID,0.717188,
2008-05-09, 02:30:04,VALID,1001.15,VALID,0,VALID,94.0107,VALID,0,VALID,25.1675,VALID,92,VALID,0.556641,
2008-05-09, 02:31:04,VALID,1001.13,VALID,0,VALID,93.7818,VALID,0,VALID,25.2065,VALID,92,VALID,0.723437,
2008-05-09, 02:32:04,VALID,1001.1,VALID,0,VALID,93.5835,VALID,0,VALID,25.2435,VALID,103,VALID,0.772656,
2008-05-09, 02:33:04,VALID,1001.09,VALID,0,VALID,93.3928,VALID,0,VALID,25.2825,VALID,103,VALID,0.600781,
2008-05-09, 02:34:04,VALID,1001.06,VALID,0,VALID,93.141,VALID,0,VALID,25.3233,VALID,103,VALID,0.719922,
2008-05-09, 02:35:04,VALID,1001.05,VALID,0,VALID,93.0189,VALID,0,VALID,25.3214,VALID,98,VALID,0.708984,
2008-05-09, 02:36:04,VALID,1001.01,VALID,0,VALID,92.874,VALID,0,VALID,25.3409,VALID,104,VALID,1.32656,
2008-05-09, 02:37:04,VALID,1001,VALID,0,VALID,92.6833,VALID,0,VALID,25.3993,VALID,96,VALID,0.632031,
2008-05-09, 02:38:04,VALID,1001,VALID,0,VALID,92.462,VALID,0,VALID,25.4188,VALID,95,VALID,0.887891,
2008-05-09, 02:39:04,VALID,1000.99,VALID,0,VALID,92.2103,VALID,0,VALID,25.4383,VALID,85,VALID,1.075,
2008-05-09, 02:40:04,VALID,1000.98,VALID,0,VALID,92.0806,VALID,0,VALID,25.4772,VALID,96,VALID,0.767578,
2008-05-09, 02:41:04,VALID,1000.99,VALID,0,VALID,91.8746,VALID,0,VALID,25.4772,VALID,96,VALID,1.03516,
2008-05-09, 02:42:04,VALID,1000.99,VALID,0,VALID,91.8136,VALID,0,VALID,25.4986,VALID,86,VALID,0.743359,
2008-05-09, 02:43:04,VALID,1000.98,VALID,0,VALID,91.8136,VALID,0,VALID,25.4577,VALID,87,VALID,0.419141,
2008-05-09, 02:44:04,VALID,1000.96,VALID,0,VALID,91.8746,VALID,0,VALID,25.4577,VALID,84,VALID,0.309766,
2008-05-09, 02:45:04,VALID,1000.96,VALID,0,VALID,91.9204,VALID,0,VALID,25.4597,VALID,87,VALID,0.741406,
2008-05-09, 02:46:04,VALID,1000.94,VALID,0,VALID,91.928,VALID,0,VALID,25.4383,VALID,92,VALID,0.748828,
2008-05-09, 02:47:04,VALID,1000.9,VALID,0,VALID,92.0043,VALID,0,VALID,25.4188,VALID,116,VALID,0.800781,
2008-05-09, 02:48:04,VALID,1000.89,VALID,0,VALID,91.8594,VALID,0,VALID,25.4188,VALID,88,VALID,1.11641,
2008-05-09, 02:49:04,VALID,1000.89,VALID,0,VALID,91.8517,VALID,0,VALID,25.4383,VALID,97,VALID,0.9375,
2008-05-09, 02:50:04,VALID,1000.87,VALID,0,VALID,91.5847,VALID,0,VALID,25.4597,VALID,95,VALID,1.47773,
2008-05-09, 02:51:04,VALID,1000.88,VALID,0,VALID,91.4703,VALID,0,VALID,25.5181,VALID,101,VALID,0.668359,
2008-05-09, 02:52:04,VALID,1000.85,VALID,0,VALID,91.4092,VALID,0,VALID,25.4772,VALID,92,VALID,0.674609,
2008-05-09, 02:53:04,VALID,1000.9,VALID,0,VALID,91.2262,VALID,0,VALID,25.4792,VALID,93,VALID,1.14961,
2008-05-09, 02:54:04,VALID,1000.89,VALID,0,VALID,91.0583,VALID,0,VALID,25.4986,VALID,90,VALID,0.956641,
2008-05-09, 02:55:04,VALID,1000.91,VALID,0,VALID,90.921,VALID,0,VALID,25.4986,VALID,115,VALID,1.12305,
2008-05-09, 02:56:04,VALID,1000.88,VALID,0,VALID,90.9439,VALID,0,VALID,25.4967,VALID,80,VALID,0.441016,
2008-05-09, 02:57:04,VALID,1000.88,VALID,0,VALID,90.4175,VALID,0,VALID,25.5357,VALID,104,VALID,1.62031,
2008-05-09, 02:58:04,VALID,1000.87,VALID,0,VALID,90.2191,VALID,0,VALID,25.596,VALID,110,VALID,1.50898,
2008-05-09, 02:59:04,VALID,1000.84,VALID,0,VALID,90.1352,VALID,0,VALID,25.596,VALID,115,VALID,0.990234,
2008-05-09, 03:00:04,VALID,1000.86,VALID,0,VALID,89.914,VALID,0,VALID,25.596,VALID,104,VALID,1.13789,
2008-05-09, 03:01:04,VALID,1000.85,VALID,0,VALID,89.9521,VALID,0,VALID,25.596,VALID,103,VALID,0.8875,
2008-05-09, 03:02:04,VALID,1000.83,VALID,0,VALID,89.9445,VALID,0,VALID,25.5357,VALID,65,VALID,0.866016,
2008-05-09, 03:03:04,VALID,1000.82,VALID,0,VALID,89.6699,VALID,0,VALID,25.5551,VALID,117,VALID,2.23633,
2008-05-09, 03:04:04,VALID,1000.82,VALID,0,VALID,89.7461,VALID,0,VALID,25.596,VALID,103,VALID,0.832422,
2008-05-09, 03:05:04,VALID,1000.81,VALID,0,VALID,89.7614,VALID,0,VALID,25.5571,VALID,112,VALID,1.08828,
2008-05-09, 03:06:04,VALID,1000.8,VALID,0,VALID,89.8606,VALID,0.100563,VALID,25.5357,VALID,100,VALID,0.910547,
2008-05-09, 03:07:04,VALID,1000.81,VALID,0,VALID,89.4334,VALID,0,VALID,25.5142,VALID,96,VALID,1.99688,
2008-05-09, 03:08:04,VALID,1000.8,VALID,0,VALID,89.3494,VALID,0,VALID,25.5746,VALID,94,VALID,1.2668,
2008-05-09, 03:09:04,VALID,1000.8,VALID,0,VALID,89.3189,VALID,0,VALID,25.5532,VALID,100,VALID,1.37695,
2008-05-09, 03:10:04,VALID,1000.81,VALID,0,VALID,89.441,VALID,0,VALID,25.5337,VALID,111,VALID,1.54453,
2008-05-09, 03:11:04,VALID,1000.79,VALID,0,VALID,89.3494,VALID,0.100563,VALID,25.5142,VALID,116,VALID,1.34492,
2008-05-09, 03:12:04,VALID,1000.77,VALID,0,VALID,89.3494,VALID,0,VALID,25.5357,VALID,94,VALID,1.54414,
2008-05-09, 03:13:04,VALID,1000.8,VALID,0,VALID,89.0977,VALID,0,VALID,25.5532,VALID,108,VALID,1.65703,
2008-05-09, 03:14:04,VALID,1000.8,VALID,0,VALID,88.8993,VALID,0,VALID,25.5746,VALID,95,VALID,2.1,
2008-05-09, 03:15:04,VALID,1000.82,VALID,0,VALID,88.4874,VALID,0.100563,VALID,25.633,VALID,109,VALID,1.80234,
2008-05-09, 03:16:04,VALID,1000.87,VALID,0,VALID,88.7162,VALID,0,VALID,25.6311,VALID,84,VALID,1.12148,
2008-05-09, 03:17:04,VALID,1000.86,VALID,0,VALID,88.6094,VALID,0,VALID,25.6116,VALID,99,VALID,1.07344,
2008-05-09, 03:18:04,VALID,1000.85,VALID,0,VALID,88.8993,VALID,0,VALID,25.5941,VALID,95,VALID,0.765234,
2008-05-09, 03:19:04,VALID,1000.84,VALID,0,VALID,89.0138,VALID,0.100563,VALID,25.5551,VALID,111,VALID,0.986328,
2008-05-09, 03:20:04,VALID,1000.86,VALID,0,VALID,89.1816,VALID,0,VALID,25.4948,VALID,100,VALID,1.1043,
2008-05-09, 03:21:04,VALID,1000.86,VALID,0,VALID,89.296,VALID,0,VALID,25.4986,VALID,92,VALID,1.3082,
2008-05-09, 03:22:04,VALID,1000.86,VALID,0,VALID,89.2808,VALID,0,VALID,25.4772,VALID,98,VALID,1.46602,
2008-05-09, 03:23:04,VALID,1000.84,VALID,0,VALID,89.3418,VALID,0,VALID,25.4772,VALID,103,VALID,1.20352,
2008-05-09, 03:24:04,VALID,1000.85,VALID,0,VALID,89.5249,VALID,0,VALID,25.4577,VALID,96,VALID,0.633594,
2008-05-09, 03:25:04,VALID,1000.82,VALID,0,VALID,89.4639,VALID,0,VALID,25.4597,VALID,106,VALID,1.35742,
2008-05-09, 03:26:04,VALID,1000.81,VALID,0,VALID,89.4486,VALID,0,VALID,25.4792,VALID,107,VALID,1.62305,
2008-05-09, 03:27:04,VALID,1000.79,VALID,0,VALID,89.4334,VALID,0,VALID,25.4772,VALID,99,VALID,1.02734,
2008-05-09, 03:28:04,VALID,1000.81,VALID,0,VALID,89.3723,VALID,0,VALID,25.4597,VALID,108,VALID,1.75312,
2008-05-09, 03:29:04,VALID,1000.76,VALID,0,VALID,89.2579,VALID,0,VALID,25.4986,VALID,99,VALID,1.24375,
2008-05-09, 03:30:04,VALID,1000.77,VALID,0,VALID,89.3723,VALID,0,VALID,25.4967,VALID,102,VALID,0.994922,
2008-05-09, 03:31:04,VALID,1000.71,VALID,0,VALID,89.2884,VALID,0,VALID,25.4986,VALID,90,VALID,1.07852,
2008-05-09, 03:32:04,VALID,1000.67,VALID,0,VALID,89.3342,VALID,0,VALID,25.4772,VALID,109,VALID,1.04453,
2008-05-09, 03:33:04,VALID,1000.64,VALID,0,VALID,89.3037,VALID,0,VALID,25.5181,VALID,69,VALID,0.825781,
2008-05-09, 03:34:04,VALID,1000.66,VALID,0,VALID,89.1358,VALID,0,VALID,25.4967,VALID,106,VALID,1.17969,
2008-05-09, 03:35:04,VALID,1000.66,VALID,0,VALID,89.1282,VALID,0,VALID,25.4772,VALID,107,VALID,1.47969,
2008-05-09, 03:36:04,VALID,1000.67,VALID,0,VALID,89.2274,VALID,0,VALID,25.4753,VALID,97,VALID,1.39141,
2008-05-09, 03:37:04,VALID,1000.71,VALID,0,VALID,89.3189,VALID,0,VALID,25.4772,VALID,103,VALID,1.71953,
2008-05-09, 03:38:04,VALID,1000.7,VALID,0,VALID,89.235,VALID,0,VALID,25.5162,VALID,85,VALID,0.960547,
2008-05-09, 03:39:04,VALID,1000.75,VALID,0,VALID,89.0138,VALID,0,VALID,25.4967,VALID,90,VALID,1.76914,
2008-05-09, 03:40:04,VALID,1000.78,VALID,0,VALID,89.0824,VALID,0,VALID,25.5162,VALID,108,VALID,1.57148,
2008-05-09, 03:41:04,VALID,1000.8,VALID,0,VALID,89.029,VALID,0,VALID,25.5357,VALID,89,VALID,1.1457,
2008-05-09, 03:42:04,VALID,1000.8,VALID,0,VALID,89.029,VALID,0,VALID,25.5162,VALID,87,VALID,1.11758,
2008-05-09, 03:43:04,VALID,1000.84,VALID,0,VALID,89.0061,VALID,0,VALID,25.4967,VALID,86,VALID,1.34922,
2008-05-09, 03:44:04,VALID,1000.84,VALID,0,VALID,88.9604,VALID,0,VALID,25.4753,VALID,92,VALID,1.15625,
2008-05-09, 03:45:04,VALID,1000.83,VALID,0,VALID,88.7697,VALID,0,VALID,25.4967,VALID,120,VALID,0.815234,
2008-05-09, 03:46:04,VALID,1000.85,VALID,0,VALID,88.7468,VALID,0,VALID,25.5357,VALID,102,VALID,1.42734,
2008-05-09, 03:47:04,VALID,1000.84,VALID,0,VALID,88.8841,VALID,0,VALID,25.4967,VALID,88,VALID,0.855859,